Regional Weather Roundup
Issued by NWS Glasgow, MT

Home | Current Version | Previous Version | Text Only | Print | Product List | Glossary On
Versions: 1 2 3 4 5 6 7 8 9 10 11 12 13 14 15 16 17 18 19 20 21 22 23 24 25 26 27 28
000
ASUS45 KGGW 051415
RWRGGW
HOURLY REGIONAL WEATHER ROUNDUP FOR NORTHEAST MONTANA
NATIONAL WEATHER SERVICE GLASGOW MONTANA
700 AM MST MON DEC 05 2016

NOTE: "FAIR" INDICATES FEW OR NO CLOUDS BELOW 12,000 FEET WITH NO
SIGNIFICANT WEATHER AND/OR OBSTRUCTIONS TO VISISBILITY.

NORTHEAST MONTANA


CITY           SKY/WX    TMP DP  RH WIND       PRES   REMARKS
GLASGOW        LGT SNOW  20  17  88 NW24      29.76R FOG
PLENTYWOOD       N/A     22  21  96 NW15G26     N/A
WOLF POINT     CLOUDY    24  17  74 NW18G30   29.71R
JORDAN           N/A     22  15  75 NW17      29.75R
WINNETT          N/A     21  15  78 W20G30      N/A
SIDNEY         CLOUDY    25  20  81 NW28G33   29.59R
GLENDIVE       CLOUDY    23  18  81 NW20G28   29.67R
MALTA            N/A     19  14  81 NW13G23     N/A
SCOBEY           N/A     19  10  68 NW18G29   29.65R HAZE

FORT PECK REPORTS


CITY           SKY/WX    TMP DP  RH WIND       PRES   REMARKS
FORT PECK        N/A     22  22 100 W23G32      N/A
THE PINES        N/A     21  18  88 W3G12       N/A

SOUTHEAST MONTANA


CITY           SKY/WX    TMP DP  RH WIND       PRES   REMARKS
BILLINGS       CLOUDY    21  12  68 NW14      29.79R
MILES CITY     CLOUDY    25  16  68 NW22G30   29.73R
BAKER          CLOUDY    23  18  81 NW20G32   29.63R
LIVINGSTON     LGT SNOW  17  12  80 NW13      29.81R VSB 3/4

CENTRAL MONTANA


CITY           SKY/WX    TMP DP  RH WIND       PRES   REMARKS
HAVRE          CLOUDY    12   6  77 W16       29.94R WCI  -5
LEWISTOWN      FLURRIES  15  12  88 W21       29.80S WCI  -2
GREAT FALLS    CLOUDY    16  11  80 NW9       29.92R
CUT BANK       CLOUDY     8   3  80 N14       29.92R WCI  -8
HELENA         LGT SNOW  19  15  84 W9        29.89R FOG
BUTTE          CLOUDY    15  -1  49 NW14      29.81R
BOZEMAN        CLOUDY    20  14  77 N8        29.84R

WESTERN MONTANA


CITY           SKY/WX    TMP DP  RH WIND       PRES   REMARKS
MISSOULA       CLOUDY    23  12  62 NW7       29.98R
KALISPELL      NOT AVBL

NORTH DAKOTA


CITY           SKY/WX    TMP DP  RH WIND       PRES   REMARKS
WILLISTON      CLOUDY    23  19  85 NW13      29.56R
DICKINSON      CLOUDY    27  23  85 W31       29.51R FOG
MINOT          CLOUDY    20  17  88 E6        29.51S
BISMARCK       CLOUDY    20  18  92 CALM      29.56R

SOUTHERN SASKATCHEWAN


CITY           SKY/WX    TMP DP  RH WIND       PRES   REMARKS
REGINA         CLOUDY    18  16  93 N16G23    29.67R
MOOSE JAW      CLOUDY    19  14  79 NW28G36   29.71R
ESTEVAN        SNOW      19  18  93 N7        29.53S VSB 1/2
SWIFT CURRENT  LGT SNOW   5   3  92 NW29G35   29.78R BLWGSNOWWCI -19





USA.gov is the U.S. government's official web portal to all federal, state and local government web resources and services.